Погода в Байконысе

Казахстан     52°57′20″N   76°25′19″E
темп.,
°C
ветер,
м/с
пор.,
м/с
влажн.,
%
обл.,
%
осадки,
мм/ч
давл.,
гПа
погр.,
м
24 октября, вс
вс2400:00+10зюз71561100 0.0 1018512
03:00+9зюз71566100 0.0 1019460
06:00+8юз71473100 0.0 1020424
09:00+9зюз61380100 0.0 1021523
12:00+13зюз7106348 0.0 1021779
15:00+14зюз795486 0.0 10211050
18:00+12юз496698 0.0 1021221
21:00+10ююз4107493 0.0 1021209
25 октября, пн
пн2500:00+9ююз61265100 0.0 1020288
03:00+8юз6145698 0.0 1018328
06:00+7юз6144994 0.0 1017332
09:00+7юз6144626 0.0 1017392
12:00+12зюз7103588 0.0 1017601
15:00+14зюз683268 0.0 1017831
18:00+10з3346100 0.0 101824
21:00+9ююз2248100 0.0 101711
26 октября, вт
вт2600:00+9ю3447100 0.0 101663
03:00+9ю3747100 0.0 1013121
06:00+8ю4952100 0.0 1011175
09:00+9ю51154100 0.0 1008265
12:00+12зюз71141100 0.0 1006560
15:00+12з71049100 0.0 10071169
18:00+7сз81180100 0.1 1011968
21:00+5сз8116796 0.0 10161241
27 октября, ср
ср2700:00+2сз6957100 0.0 1020916
03:000зсз486095 0.0 1023412
06:00−2зсз35694 0.0 1025107
09:00−1зсз34653 0.0 1027195
12:00+2з454368 0.0 1027794
15:00+3з45330 0.0 10271150
18:00+1з33415 0.0 102846
21:000зюз344873 0.0 102954
28 октября, чт
чт2800:00−1юз3449100 0.0 103074
03:00−1ююз364990 0.0 1030109
06:00−1ююз47507 0.0 1030115
09:000ююз49466 0.0 1030253
12:00+5юз79315 0.0 1029718
15:00+6юз79275 0.0 1027962
18:00+4ююз5113316 0.0 1026254
21:00+3ююз6133754 0.0 1025296